SSA

operational
NORAD ID: 13844 Int'l Des: 1983-008 Owner: NRO/NRL Country: US
LEO

Über SSA

Beschreibung wird geladen...

Live-Position

3D-Globus wird geladen...

Nächste Überflüge

Höhenverlauf

Altitude vs Time

uPlot chart will show altitude changes over time

Zweizeiliger Elementsatz

1 13844U 83008E 26063.14661565 .00003772 00000-0 51189-3 0 9996
2 13844 63.3116 317.1353 0722646 133.0645 233.3272 13.77101310344382
Epoch: 4. März 2026 • Age: 18 hours

Aktueller Status

Höhe 885.2 km
Geschwindigkeit 7.46 km/s
Subsatellitenpunkt -32.19°S, 74.68°E
Startdatum 9. Feb. 1983
Alter 43 years
Typ other

Technische Details

Klassifizierung Payload
Masse 200.00 kg
Trockenmasse 200.00 kg
Gesamtmasse 200.00 kg
Länge 0.90 m
Durchmesser 0.40 m
Spannweite 10.00 m
Form Box + Ant
Hersteller MM
Bus-Typ NOSS SSU
Phasenstatus In Orbit
Besitzer/Staat NRO/NRL/US

Große Konstellationen

Loading constellations...